Weather History for Namest Nad Oslav, Czech Republic

Change the Weather History Date:

Thursday, October 10, 2013

  Actual Average Record
Temperature  
Mean Temperature 50 °F -  
Max Temperature 55 °F - - ()
Min Temperature 46 °F - - ()
Degree Days  
Heating Degree Days 14    
Moisture  
Dew Point 49 °F    
Average Humidity 93    
Maximum Humidity 100    
Minimum Humidity 82    
Precipitation  
Precipitation 0.00 in - - ()
Sea Level Pressure  
Sea Level Pressure 29.82 in    
Wind  
Wind Speed 7 mph ()    
Max Wind Speed 15 mph    
Max Gust Speed -    
Visibility 2.4 miles    
Events Fog , Rain    
T = Trace of Precipitation, MM = Missing Value Source: Averaged Metar Reports

Daily Weather History Graph

Daily Weather History Graph

Search for Another Location

Airport:

Trip Planner

Search our weather history database for the weather conditions in past years. The results will help you decide how hot, cold, wet, or windy it might be!

Date:

Astronomy

Oct. 10, 2013 Rise Set
Actual Time 7:08 AM CEST 6:15 PM CEST
Civil Twilight 6:36 AM CEST 6:47 PM CEST
Nautical Twilight 6:00 AM CEST 7:23 PM CEST
Astronomical Twilight 5:22 AM CEST 8:00 PM CEST
Moon 1:05 PM CEST (10/10) 10:14 PM CEST (10/10)
Length of Visible Light 12h 10m
Length of Day
11h 06m
Waxing Crescent, 33% of the Moon is Illuminated
Oct 10
Waxing Crescent
Oct 12
First Quarter
Oct 19
Full
Oct 27
Last Quarter
Nov 3
New

Hourly Weather History & Observations

Time (CEST) Temp. Windchill Dew Point Humidity Pressure Visibility Wind Dir Wind Speed Gust Speed Precip Events Conditions
12:00 AM 50.0 °F - 46.4 °F 87% 29.98 in 2.8 mi SSW 4.6 mph - N/A   Overcast
1:00 AM 50.0 °F - 48.2 °F 94% 29.95 in 2.8 mi SSW 3.5 mph - N/A   Overcast
2:00 AM 51.8 °F - 46.4 °F 82% 29.95 in 5.0 mi SW 4.6 mph - N/A   Overcast
3:00 AM 50.0 °F - 46.4 °F 87% 29.92 in 5.6 mi SSW 4.6 mph - N/A   Overcast
4:00 AM 50.0 °F - 46.4 °F 87% 29.89 in 5.0 mi SSW 5.8 mph - N/A   Overcast
5:00 AM 50.0 °F - 46.4 °F 87% 29.89 in 4.3 mi SSW 5.8 mph - N/A   Unknown
6:00 AM 48.2 °F - 46.4 °F 93% 29.86 in 3.7 mi South 4.6 mph - N/A   Overcast
6:42 AM 48.2 °F - 46.4 °F 93% 29.86 in 2.2 mi South 5.8 mph - N/A   Mist
7:00 AM 48.2 °F - 46.4 °F 93% 29.86 in 1.9 mi South 4.6 mph - N/A   Mist
7:39 AM 46.4 °F - 46.4 °F 100% 29.83 in 0.9 mi Variable 2.3 mph - N/A   Mostly Cloudy
8:00 AM 46.4 °F 43.5 °F 46.4 °F 100% 29.83 in 0.3 mi South 5.8 mph - N/A Fog Fog
8:04 AM 48.2 °F - 46.4 °F 93% 29.83 in 0.1 mi South 5.8 mph - N/A Fog Fog
9:00 AM 50.0 °F - 50.0 °F 100% 29.83 in 1.1 mi SE 5.8 mph - N/A   Mostly Cloudy
9:07 AM 50.0 °F - 48.2 °F 94% 29.83 in 0.4 mi SSE 6.9 mph - N/A Fog Fog
10:00 AM 50.0 °F - 50.0 °F 100% 29.83 in 0.8 mi SE 6.9 mph - N/A   Mostly Cloudy
10:39 AM 51.8 °F - 50.0 °F 94% 29.83 in 1.2 mi SE 5.8 mph - N/A   Mostly Cloudy
11:00 AM 51.8 °F - 50.0 °F 94% 29.80 in 1.6 mi SE 6.9 mph - N/A   Mostly Cloudy
12:00 PM 53.6 °F - 50.0 °F 88% 29.80 in 1.9 mi SE 6.9 mph - N/A Rain Light Rain
1:00 PM 55.4 °F - 50.0 °F 82% 29.80 in 2.5 mi SSE 12.7 mph - N/A   Mostly Cloudy
2:00 PM 55.4 °F - 51.8 °F 88% 29.77 in 2.5 mi SE 9.2 mph - N/A   Mostly Cloudy
3:00 PM 55.4 °F - 50.0 °F 82% 29.77 in 2.8 mi SSE 11.5 mph - N/A   Overcast
4:00 PM 53.6 °F - 51.8 °F 94% 29.74 in 2.8 mi SE 15.0 mph - N/A   Overcast
4:15 PM 53.6 °F - 50.0 °F 88% 29.74 in 1.9 mi SE 13.8 mph - N/A   Overcast
5:00 PM 53.6 °F - 51.8 °F 94% 29.74 in 1.9 mi SE 11.5 mph - N/A   Overcast
6:00 PM 53.6 °F - 51.8 °F 94% 29.74 in 1.9 mi SE 11.5 mph - N/A   Overcast
7:00 PM 53.6 °F - 51.8 °F 94% 29.74 in 2.8 mi SE 10.4 mph - N/A   Overcast
8:00 PM 53.6 °F - 51.8 °F 94% 29.74 in 2.8 mi SE 13.8 mph - N/A   Overcast
9:00 PM 53.6 °F - 51.8 °F 94% 29.74 in 3.7 mi SE 13.8 mph - N/A   Overcast
10:00 PM 53.6 °F - 51.8 °F 94% 29.74 in 3.7 mi SE 15.0 mph - N/A   Overcast
10:18 PM 53.6 °F - 51.8 °F 94% 29.77 in 3.1 mi SE 13.8 mph - N/A   Overcast
10:46 PM 51.8 °F - 51.8 °F 100% 29.77 in 1.9 mi SE 15.0 mph - N/A Rain Light Rain
11:00 PM 51.8 °F - 51.8 °F 100% 29.77 in 1.9 mi SE 12.7 mph - N/A Rain Light Rain
11:04 PM 51.8 °F - 51.8 °F 100% 29.77 in 1.2 mi SE 12.7 mph - N/A Rain Light Rain